User: anonymous   Login
Location: Fort Frances
(48.6170°N, 93.4170°W)
Time: 21:36:14
(UTC-05:00)
Language:

Iridium 53 - Orbit

View from above orbital plane
View from above orbital plane
View from above satellite
View from above satellite

Ground track
Ground track

The orbit data is extracted from the following two-line orbital elements,

1 25173U 98010E   16236.22697667  .00000138  00000-0  42240-4 0  9997
2 25173  86.3966 114.9504 0002246  83.3131 276.8321 14.34219190969068
Epoch (UTC): 23 August 2016 05:26:50
Eccentricity: 0.0002246
inclination: 86.3966°
perigee height: 776 km
apogee height: 779 km
right ascension of ascending node: 114.9504°
argument of perigee: 83.3131°
revolutions per day: 14.34219190
mean anomaly at epoch: 276.8321°
orbit number at epoch: 96906

The dashed part of the orbit path shows where the satellite is in the earth's shadow,  

DLR